Wind_Speed
6 6 4 3 4 5 5 7 8 9 11 12 13 13 12 15 14 16 17 19 17 18 19 19 19 19 22 22 23 23 21 19 20 15 13 17 17 23 29 24 38 25 29
5 5 4 4 5 6 7 7 8 9 10 10 11 10 14 12 16 15 17 16 17 20 17 18 19 20 20 22 23 21 21 16 16 8 7 4 1 10 13 9 20 12 9
2 3 5 7 7 9 9 8 7 8 8 9 9 10 12 13 12 15 17 16 18 17 19 20 20 19 16 18 21 17 17 13 12 14 9 1 1 2 12 12 16 13 7
1 3 6 8 9 9 8 8 8 8 7 8 8 9 12 13 13 14 15 17 17 16 18 22 18 16 15 18 20 19 17 13 10 3 7 5 7 2 2 6 10 10 5
1 2 3 7 9 9 10 10 10 9 8 7 8 9 11 12 13 13 13 12 13 11 16 19 18 17 13 11 13 12 11 10 9 12 10 6 10 8 3 2 3 9 6
3 3 5 7 10 10 11 12 12 12 10 9 9 10 10 11 12 12 12 11 12 12 14 16 16 14 14 11 8 9 7 7 3 5 12 7 4 7 2 0 1 6 12
4 4 6 7 9 10 12 13 14 14 12 11 10 10 10 10 11 11 10 12 12 12 13 12 13 14 14 11 11 12 11 12 10 10 9 6 7 4 1 4 2 1 1
4 7 9 12 13 13 14 14 15 15 13 12 12 11 10 10 11 10 10 10 11 11 13 12 8 8 9 8 8 8 9 8 7 7 7 5 5 5 4 1 3 1 2
10 12 14 15 17 18 17 17 16 16 14 13 12 11 12 12 11 11 10 9 9 9 10 12 12 7 6 5 6 6 6 6 6 6 5 5 5 5 4 3 2 1 3
13 13 14 16 16 16 15 14 15 16 15 14 13 13 13 13 12 12 12 10 9 9 8 8 9 11 8 5 5 3 3 4 5 4 4 4 4 4 4 4 2 2 3
12 13 14 15 15 14 12 13 14 15 16 16 15 15 14 14 14 13 12 12 10 9 8 8 6 6 8 9 7 4 4 2 2 3 3 4 4 3 3 2 1 1 1
10 12 15 16 15 14 13 13 13 14 16 17 17 17 15 14 15 15 14 11 11 10 9 9 8 7 5 4 4 5 4 4 2 2 2 2 2 3 3 3 2 1 0
10 12 14 15 16 17 18 16 15 15 15 16 18 18 18 17 17 16 14 12 10 9 9 8 8 7 6 4 2 1 1 1 1 1 0 1 1 2 1 1 1 2 2
10 12 12 16 19 19 19 20 19 16 16 16 19 21 21 20 18 14 12 11 11 10 10 9 8 8 6 5 3 2 2 2 1 1 0 0 1 2 2 2 2 3 4
13 14 15 15 22 24 24 24 22 19 16 17 20 23 22 21 19 17 16 16 14 12 11 10 10 9 8 8 7 6 6 5 4 4 3 3 4 6 4 3 5 5 6
17 17 17 21 24 25 26 27 25 22 18 17 19 21 22 22 22 21 21 19 18 15 13 12 12 13 11 12 13 9 7 6 6 7 6 6 5 4 4 5 6 4 5
18 19 19 21 25 25 25 25 24 24 21 20 21 20 22 23 24 23 21 22 20 18 18 17 16 16 15 16 14 13 9 9 8 8 7 7 6 6 5 7 6 7 6
21 19 21 25 27 27 27 27 25 24 20 20 23 22 21 23 23 23 23 21 20 20 20 19 18 16 16 17 15 14 14 11 10 9 9 8 7 6 6 5 6 7 8
21 22 26 29 30 28 25 25 26 25 21 22 23 22 21 23 24 26 26 25 21 20 21 19 19 18 17 19 18 15 14 13 12 11 11 10 8 7 7 5 7 8 9
24 24 27 28 27 26 25 24 26 24 22 24 25 26 23 24 26 27 27 25 24 23 20 20 20 19 19 18 19 19 16 14 13 11 11 12 10 6 6 7 8 9 9
24 25 24 24 24 25 24 23 25 24 25 26 26 24 21 22 25 23 24 24 24 22 21 21 20 20 20 19 20 21 19 15 13 12 11 11 10 9 8 8 9 11 9
21 23 20 22 25 24 23 22 23 26 26 26 26 25 22 20 20 21 22 23 21 20 19 19 17 19 19 20 20 21 22 15 13 11 11 10 9 9 8 9 10 9 9
20 21 21 24 25 23 22 22 25 27 27 26 25 24 23 20 18 19 19 19 20 19 19 18 17 17 17 17 20 20 21 19 15 12 11 9 9 8 9 11 9 9 8
19 21 22 21 23 24 24 22 23 23 24 25 26 24 20 18 15 17 19 21 22 22 21 20 19 17 17 19 19 21 20 20 19 16 12 10 9 8 8 9 9 8 8
21 22 20 22 25 25 26 24 22 20 20 22 23 22 19 17 16 18 20 21 25 26 23 24 22 20 20 24 24 23 22 20 19 14 12 12 11 10 10 9 9 9 8
20 21 23 22 25 26 25 24 22 19 18 19 19 19 20 18 17 17 19 23 26 23 27 23 24 23 24 20 22 22 20 18 17 17 14 12 12 11 10 10 10 10 8
Wind_Direction
142 172 188 222 240 277 292 304 312 324 330 331 334 329 329 328 327 327 322 320 316 322 314 304 298 285 273 265 263 260 256 265 263 251 265 253 257 239 228 231 236 233 229
175 190 219 239 252 268 276 286 304 318 328 328 327 327 327 321 319 321 327 328 326 324 316 309 300 291 287 283 271 259 258 250 255 241 244 247 116 235 266 317 237 194 214
238 219 233 251 256 259 271 284 298 306 313 319 321 324 322 318 324 329 324 327 330 332 334 323 309 293 288 282 284 280 265 250 254 243 242 185 147 115 39 11 68 78 58
210 246 255 261 266 270 268 271 276 281 293 310 308 309 312 307 314 316 318 322 326 340 336 340 328 314 298 291 282 274 267 251 242 140 220 172 139 119 89 69 67 61 55
267 293 278 273 276 272 263 263 260 265 273 282 283 289 293 302 308 311 319 324 329 332 352 352 350 349 349 302 298 277 266 259 239 210 150 129 113 137 149 176 215 162 235
349 329 305 288 281 273 261 257 257 259 261 264 270 271 281 297 305 313 320 324 323 323 354 4 6 3 3 8 15 20 32 20 16 226 207 192 176 190 176 186 149 219 187
343 323 296 288 285 281 267 257 256 258 256 259 266 270 277 288 295 303 308 317 317 321 339 354 11 16 15 14 20 20 14 17 27 33 44 32 41 32 147 188 82 191 67
321 296 296 291 288 287 283 267 255 255 250 253 262 270 272 275 277 285 297 302 305 310 323 335 348 4 14 19 19 24 20 28 39 43 46 53 53 48 60 99 170 151 167
329 315 307 298 294 291 288 278 265 258 254 253 256 261 264 264 269 278 286 288 294 302 311 321 326 336 341 4 18 20 15 17 25 32 45 61 60 62 55 65 75 312 184
336 326 319 318 314 308 297 282 272 267 261 254 252 255 257 259 262 263 264 271 280 288 297 307 318 325 329 337 354 360 7 9 4 16 32 61 72 72 68 74 92 174 229
350 347 340 327 318 312 299 286 278 272 264 256 254 254 258 262 260 261 266 267 270 278 284 291 295 311 327 333 334 343 347 12 27 28 24 21 26 51 70 80 104 180 272
351 344 344 342 335 325 313 297 285 275 267 260 257 254 253 255 262 263 261 263 270 275 282 288 290 292 297 315 328 330 345 345 7 65 112 82 32 37 27 32 71 86 91
333 333 340 340 338 333 325 303 287 275 267 256 250 250 252 247 245 252 257 260 266 272 276 282 282 284 291 292 296 316 345 10 10 357 60 92 102 115 82 20 334 333 314
326 328 331 331 329 325 322 316 291 279 267 251 246 247 243 246 250 252 256 261 262 264 262 261 262 259 253 251 237 228 203 188 194 170 114 70 132 165 179 196 208 231 259
324 327 326 321 318 314 317 314 310 280 269 253 246 245 246 243 238 229 227 232 238 244 247 250 250 249 248 241 229 216 202 202 199 197 185 176 204 208 215 216 206 220 232
321 319 317 315 313 317 317 315 311 298 281 269 257 253 247 243 234 231 229 224 224 227 229 234 236 237 233 238 234 213 225 213 204 207 203 205 214 207 216 218 212 233 238
318 318 316 313 311 311 311 310 308 308 293 283 276 261 247 242 240 234 229 226 223 223 222 224 225 227 232 233 228 220 215 223 222 216 215 222 223 229 224 228 234 239 244
318 315 316 313 311 310 310 307 306 305 292 285 280 274 261 246 240 236 234 231 224 221 222 226 226 227 228 231 222 215 220 221 227 222 221 222 230 239 235 243 268 278 282
317 318 318 314 312 312 313 309 308 308 300 293 284 274 258 246 239 233 230 230 226 225 222 220 219 221 224 229 222 213 216 230 227 226 217 216 220 234 257 258 274 283 288
323 322 319 316 316 319 320 313 309 310 304 303 301 291 272 247 237 234 231 228 224 225 222 221 221 221 220 225 221 209 212 222 229 229 236 235 230 226 244 264 286 291 295
319 320 320 315 314 318 318 311 308 305 304 303 303 296 280 262 253 246 235 227 221 221 220 219 220 219 218 215 217 211 212 218 221 221 225 229 224 234 229 255 266 275 290
321 323 319 315 317 318 319 315 312 313 310 305 299 295 285 271 255 242 240 231 225 220 224 224 225 223 219 216 213 212 217 221 226 221 226 229 213 228 233 252 257 262 273
326 328 326 321 320 322 324 317 315 317 315 311 305 301 297 282 259 241 233 229 225 224 223 220 222 222 219 220 217 214 217 221 226 229 227 225 217 225 247 251 247 260 260
328 329 327 323 320 324 322 319 319 320 317 312 311 309 303 289 267 249 233 224 221 221 221 217 216 213 210 213 217 213 216 219 221 226 228 224 235 234 239 236 244 244 246
325 325 323 320 317 321 321 322 323 326 322 317 314 312 306 296 280 258 243 233 233 222 219 219 213 202 208 212 215 209 203 205 209 210 215 215 224 230 230 229 230 232 233
318 320 318 317 313 315 314 317 320 321 320 316 315 312 308 300 286 276 268 248 242 238 234 232 223 220 227 216 211 206 201 200 197 204 202 215 226 228 231 226 230 227 234
Height
788 794 797 798 799 800 800 799 797 796 794 792 790 787 785 783 780 778 775 771 767 764 761 757 754 751 748 746 743 742 740 740 742 739 738 738 739 736 743 744 743 743 745
789 793 795 797 798 798 796 796 796 795 794 792 791 788 785 782 779 777 773 770 767 763 759 756 752 748 745 742 739 738 737 737 739 737 735 736 735 735 736 739 737 729 728
785 789 792 794 794 794 794 795 795 794 793 792 789 787 785 782 778 776 773 769 766 763 759 754 749 745 742 739 736 733 733 734 734 735 735 735 736 736 739 742 739 740 745
786 788 790 790 791 791 792 792 792 792 791 789 788 786 784 781 778 775 771 767 765 761 757 752 747 743 740 738 736 734 733 733 732 735 736 734 732 739 748 747 744 745 753
786 787 789 789 790 790 789 790 789 788 787 786 784 783 781 779 776 773 770 766 763 759 754 751 746 742 739 737 735 732 731 731 731 732 735 736 733 735 740 744 745 743 749
786 788 788 788 787 787 786 786 785 783 783 782 781 780 779 777 775 772 769 766 762 759 753 750 747 744 741 739 736 733 732 730 730 731 733 734 734 736 738 738 735 741 740
787 786 785 784 783 782 782 782 781 780 780 780 779 778 777 776 774 771 769 765 761 758 753 749 746 744 742 740 738 736 736 734 734 733 735 736 736 739 738 737 742 745 744
784 784 783 783 781 780 779 777 777 776 776 776 776 776 775 773 772 770 768 765 762 759 756 752 747 744 742 741 740 739 739 738 738 737 738 738 739 739 740 741 742 743 744
783 782 780 779 778 776 775 774 773 773 773 773 772 772 772 771 769 768 767 764 761 758 756 754 751 746 744 741 740 740 741 740 741 741 741 741 741 740 740 741 740 743 744
783 781 778 776 774 773 772 771 771 770 770 769 768 768 767 766 765 764 762 760 759 757 754 751 751 750 747 744 743 741 739 740 740 741 741 742 742 742 742 742 743 745 745
783 780 777 775 773 771 769 768 767 766 765 765 764 764 763 763 761 760 760 758 757 755 753 752 749 748 748 748 746 744 743 741 740 740 740 741 742 742 743 743 744 744 744
781 779 776 773 770 767 765 764 763 762 760 760 760 759 758 758 759 758 756 756 755 754 753 751 750 749 746 745 746 746 745 745 744 742 741 742 742 743 743 744 744 744 745
779 777 775 772 769 766 763 760 758 755 753 753 752 752 753 751 750 751 752 752 752 752 751 750 749 748 747 745 744 744 745 745 745 745 744 744 743 743 744 745 746 745 745
779 776 774 771 768 765 761 757 753 752 749 747 746 745 744 745 747 748 749 750 749 748 748 747 746 745 743 743 742 743 742 742 744 744 745 745 744 744 745 746 746 746 747
777 774 772 769 765 761 757 753 750 747 744 742 740 739 739 738 737 737 738 739 741 741 742 743 743 743 743 741 741 740 739 741 741 741 741 742 742 743 744 745 745 745 746
776 773 770 766 762 758 755 751 746 743 742 739 736 734 733 733 731 731 732 731 731 732 734 736 737 738 737 738 738 738 740 739 739 740 741 740 740 740 740 741 742 743 743
775 771 768 763 758 755 752 746 743 740 738 736 733 730 727 727 727 726 725 725 725 727 728 728 730 730 732 731 732 734 735 737 737 737 738 740 740 739 740 741 741 741 741
775 770 765 760 755 751 747 743 738 734 731 730 727 725 724 722 722 722 721 721 721 721 723 725 726 727 727 728 730 731 732 732 734 734 735 735 736 738 737 737 738 738 738
773 769 764 758 752 748 744 739 734 732 728 724 720 717 715 714 715 713 712 714 716 716 715 716 718 720 721 722 724 727 729 730 729 730 730 731 732 734 734 735 735 734 735
770 766 761 756 750 745 741 736 731 728 724 720 716 713 709 706 704 704 706 707 708 709 710 711 712 713 714 718 720 722 724 725 726 727 728 727 727 727 729 731 731 731 731
769 764 760 755 750 745 740 734 729 725 721 716 712 708 704 702 701 700 700 700 700 702 703 703 705 706 707 710 713 717 719 720 721 722 724 724 723 725 725 726 727 728 728
765 762 758 752 745 741 737 731 726 721 716 711 707 702 699 696 695 694 695 696 698 699 700 701 701 702 703 703 706 710 714 717 718 717 720 721 721 722 723 724 724 725 725
762 758 754 748 742 738 735 730 724 719 713 708 702 698 694 691 690 688 688 691 694 695 695 696 697 699 700 702 703 705 709 712 716 716 717 718 719 720 720 721 721 723 722
761 757 752 747 740 735 730 726 721 717 711 706 701 695 691 687 686 685 683 682 683 684 687 687 688 690 694 696 699 700 703 706 709 713 715 716 717 717 718 718 717 719 721
760 756 752 746 739 733 728 723 718 713 709 704 699 693 689 685 683 680 678 677 676 675 677 678 680 682 685 685 689 691 695 699 703 709 711 712 713 714 714 714 715 717 717
758 753 748 744 739 733 726 721 716 711 705 699 694 690 687 682 680 678 675 672 670 671 671 674 675 675 678 681 683 687 690 695 699 704 706 707 709 709 710 710 712 712 712